• en Belgique
  • Liste des pays
  • À 7 jours
  • Température de l'eau
  • Carte satellitaire
  • Carte météo
  • Widgets météo
  • user-avatar
    Se connecter

    Météo par heure à Kalgoorlie

    Ce jour, 25 Juin, Dimanche

    Heure Température Précipitation Vent Pression Humidité
    00:00 +10°C° 0 mm 3 m/s 735 mmHg 84%
    01:00 +9°C° 0 mm 3 m/s 735 mmHg 85%
    02:00 +9°C° 0 mm 3 m/s 735 mmHg 86%
    03:00 +8°C° 0 mm 3 m/s 735 mmHg 86%
    04:00 +8°C° 0 mm 3 m/s 735 mmHg 86%
    05:00 +8°C° 0 mm 3 m/s 735 mmHg 86%
    06:00 +8°C° 0 mm 3 m/s 735 mmHg 86%
    07:00 +7°C° 0 mm 4 m/s 736 mmHg 85%
    08:00 +7°C° 0 mm 4 m/s 736 mmHg 85%
    09:00 +10°C° 0 mm 4 m/s 736 mmHg 76%
    10:00 +10°C° 0 mm 5 m/s 736 mmHg 67%
    11:00 +13°C° 0 mm 6 m/s 736 mmHg 58%
    12:00 +13°C° 0 mm 5 m/s 736 mmHg 56%
    13:00 +13°C° 0 mm 5 m/s 735 mmHg 54%
    14:00 +14°C° 0 mm 5 m/s 735 mmHg 53%
    15:00 +13°C° 0 mm 4 m/s 735 mmHg 55%
    16:00 +12°C° 0 mm 4 m/s 735 mmHg 57%
    17:00 +12°C° 0 mm 4 m/s 735 mmHg 59%
    18:00 +12°C° 0 mm 4 m/s 735 mmHg 60%
    19:00 +11°C° 0 mm 4 m/s 736 mmHg 62%
    20:00 +11°C° 0 mm 4 m/s 736 mmHg 63%
    21:00 +10°C° 0 mm 4 m/s 736 mmHg 66%
    22:00 +10°C° 0 mm 3 m/s 736 mmHg 69%
    23:00 +9°C° 0 mm 3 m/s 736 mmHg 72%

    Demain, 26 Juin, Lundi

    Heure Température Précipitation Vent Pression Humidité
    00:00 +8°C° 0 mm 3 m/s 736 mmHg 75%
    01:00 +8°C° 0 mm 3 m/s 736 mmHg 79%
    02:00 +7°C° 0 mm 3 m/s 736 mmHg 83%
    03:00 +7°C° 0 mm 3 m/s 736 mmHg 86%
    04:00 +7°C° 0 mm 2 m/s 736 mmHg 89%
    05:00 +6°C° 0 mm 2 m/s 736 mmHg 91%
    06:00 +7°C° 0 mm 2 m/s 736 mmHg 90%
    07:00 +7°C° 0 mm 2 m/s 737 mmHg 88%
    08:00 +7°C° 0 mm 2 m/s 737 mmHg 86%
    09:00 +9°C° 0 mm 2 m/s 737 mmHg 76%
    10:00 +11°C° 0 mm 3 m/s 737 mmHg 66%
    11:00 +12°C° 0 mm 3 m/s 737 mmHg 56%
    12:00 +13°C° 0 mm 3 m/s 737 mmHg 53%
    13:00 +13°C° 0 mm 3 m/s 736 mmHg 50%
    14:00 +14°C° 0 mm 3 m/s 736 mmHg 46%
    15:00 +14°C° 0 mm 2 m/s 736 mmHg 49%
    16:00 +13°C° 0 mm 2 m/s 736 mmHg 52%
    17:00 +13°C° 0 mm 2 m/s 736 mmHg 54%
    18:00 +12°C° 0 mm 2 m/s 736 mmHg 56%
    19:00 +12°C° 0 mm 2 m/s 737 mmHg 59%
    20:00 +11°C° 0 mm 1 m/s 737 mmHg 61%
    21:00 +11°C° 0 mm 1 m/s 737 mmHg 63%
    22:00 +11°C° 0 mm 1 m/s 737 mmHg 64%
    23:00 +11°C° 0 mm 1 m/s 737 mmHg 65%

    Après-demain, 27 Juin, Mardi

    Heure Température Précipitation Vent Pression Humidité
    00:00 +11°C° 0 mm 1 m/s 737 mmHg 69%
    01:00 +9°C° 0 mm 2 m/s 737 mmHg 72%
    02:00 +9°C° 0 mm 2 m/s 737 mmHg 75%
    03:00 +9°C° 0 mm 2 m/s 737 mmHg 78%
    04:00 +8°C° 0 mm 3 m/s 737 mmHg 80%
    05:00 +8°C° 0 mm 3 m/s 737 mmHg 83%
    06:00 +8°C° 0 mm 3 m/s 737 mmHg 83%
    07:00 +8°C° 0 mm 3 m/s 738 mmHg 83%
    08:00 +8°C° 0 mm 3 m/s 738 mmHg 83%
    09:00 +10°C° 0 mm 4 m/s 738 mmHg 74%
    10:00 +12°C° 0 mm 4 m/s 738 mmHg 65%
    11:00 +14°C° 0 mm 5 m/s 738 mmHg 56%
    12:00 +14°C° 0 mm 5 m/s 738 mmHg 53%
    13:00 +15°C° 0 mm 5 m/s 738 mmHg 49%
    14:00 +15°C° 0 mm 6 m/s 737 mmHg 45%
    15:00 +15°C° 0 mm 5 m/s 737 mmHg 49%
    16:00 +14°C° 0 mm 5 m/s 737 mmHg 52%
    17:00 +13°C° 0 mm 4 m/s 738 mmHg 56%
    18:00 +12°C° 0 mm 4 m/s 738 mmHg 62%
    19:00 +10°C° 0 mm 5 m/s 739 mmHg 69%
    20:00 +10°C° 0 mm 5 m/s 740 mmHg 75%
    21:00 +9°C° 0 mm 5 m/s 740 mmHg 81%
    22:00 +8°C° 0 mm 5 m/s 740 mmHg 87%
    23:00 +8°C° 0 mm 5 m/s 740 mmHg 93%

    28 Juin, Mercredi

    Heure Température Précipitation Vent Pression Humidité
    00:00 +7°C° 0 mm 5 m/s 740 mmHg 94%
    01:00 +7°C° 0 mm 4 m/s 740 mmHg 94%
    02:00 +7°C° 0 mm 4 m/s 740 mmHg 95%
    03:00 +6°C° 0 mm 4 m/s 741 mmHg 95%
    04:00 +6°C° 0 mm 4 m/s 741 mmHg 95%
    05:00 +5°C° 0 mm 4 m/s 741 mmHg 96%
    06:00 +5°C° 0 mm 4 m/s 741 mmHg 94%
    07:00 +6°C° 0 mm 4 m/s 742 mmHg 92%
    08:00 +6°C° 0 mm 4 m/s 742 mmHg 91%
    09:00 +7°C° 0 mm 4 m/s 742 mmHg 78%
    10:00 +9°C° 0 mm 5 m/s 743 mmHg 65%
    11:00 +12°C° 0 mm 5 m/s 743 mmHg 52%
    12:00 +12°C° 0 mm 5 m/s 742 mmHg 47%
    13:00 +13°C° 0 mm 5 m/s 741 mmHg 43%
    14:00 +14°C° 0 mm 5 m/s 741 mmHg 38%
    15:00 +13°C° 0 mm 4 m/s 741 mmHg 42%
    16:00 +12°C° 0 mm 4 m/s 741 mmHg 46%
    17:00 +11°C° 0 mm 3 m/s 741 mmHg 51%
    18:00 +10°C° 0 mm 3 m/s 741 mmHg 54%
    19:00 +9°C° 0 mm 3 m/s 742 mmHg 58%
    20:00 +8°C° 0 mm 3 m/s 742 mmHg 62%
    21:00 +8°C° 0 mm 3 m/s 742 mmHg 65%
    22:00 +7°C° 0 mm 3 m/s 742 mmHg 68%
    23:00 +7°C° 0 mm 3 m/s 742 mmHg 71%

    29 Juin, Jeudi

    Heure Température Précipitation Vent Pression Humidité
    00:00 +5°C° 0 mm 3 m/s 742 mmHg 74%
    01:00 +5°C° 0 mm 3 m/s 741 mmHg 76%
    02:00 +5°C° 0 mm 3 m/s 741 mmHg 79%
    03:00 +4°C° 0 mm 3 m/s 741 mmHg 82%
    04:00 +4°C° 0 mm 3 m/s 741 mmHg 84%
    05:00 +4°C° 0 mm 3 m/s 741 mmHg 86%
    06:00 +4°C° 0 mm 4 m/s 741 mmHg 85%
    07:00 +4°C° 0 mm 4 m/s 741 mmHg 84%
    08:00 +4°C° 0 mm 4 m/s 742 mmHg 83%
    09:00 +6°C° 0 mm 5 m/s 741 mmHg 73%
    10:00 +8°C° 0 mm 5 m/s 741 mmHg 62%
    11:00 +10°C° 0 mm 6 m/s 741 mmHg 52%
    12:00 +11°C° 0 mm 6 m/s 740 mmHg 47%
    13:00 +13°C° 0 mm 6 m/s 739 mmHg 42%
    14:00 +14°C° 0 mm 5 m/s 739 mmHg 36%
    15:00 +13°C° 0 mm 5 m/s 738 mmHg 39%
    16:00 +12°C° 0 mm 4 m/s 738 mmHg 42%
    17:00 +11°C° 0 mm 3 m/s 738 mmHg 45%
    18:00 +10°C° 0 mm 3 m/s 738 mmHg 47%
    19:00 +9°C° 0 mm 3 m/s 738 mmHg 49%
    20:00 +8°C° 0 mm 4 m/s 738 mmHg 51%
    21:00 +7°C° 0 mm 4 m/s 738 mmHg 53%
    22:00 +7°C° 0 mm 4 m/s 738 mmHg 55%
    23:00 +6°C° 0 mm 4 m/s 738 mmHg 57%

    30 Juin, Vendredi

    Heure Température Précipitation Vent Pression Humidité
    00:00 +6°C° 0 mm 4 m/s 737 mmHg 59%
    01:00 +6°C° 0 mm 4 m/s 737 mmHg 61%
    02:00 +5°C° 0 mm 4 m/s 737 mmHg 63%
    03:00 +5°C° 0 mm 4 m/s 737 mmHg 66%
    04:00 +4°C° 0 mm 4 m/s 737 mmHg 68%
    05:00 +4°C° 0 mm 4 m/s 736 mmHg 71%
    06:00 +4°C° 0 mm 4 m/s 737 mmHg 71%
    07:00 +5°C° 0 mm 4 m/s 737 mmHg 71%
    08:00 +5°C° 0 mm 4 m/s 737 mmHg 71%
    09:00 +7°C° 0 mm 5 m/s 737 mmHg 61%
    10:00 +10°C° 0 mm 5 m/s 736 mmHg 51%
    11:00 +13°C° 0 mm 6 m/s 736 mmHg 41%
    12:00 +14°C° 0 mm 5 m/s 735 mmHg 37%
    13:00 +15°C° 0 mm 5 m/s 734 mmHg 33%
    14:00 +16°C° 0 mm 5 m/s 734 mmHg 29%
    15:00 +14°C° 0 mm 4 m/s 734 mmHg 32%
    16:00 +13°C° 0 mm 3 m/s 734 mmHg 35%
    17:00 +12°C° 0 mm 2 m/s 734 mmHg 38%
    18:00 +12°C° 0 mm 1 m/s 734 mmHg 40%
    19:00 +11°C° 0 mm 1 m/s 734 mmHg 42%
    20:00 +10°C° 0 mm 1 m/s 734 mmHg 44%
    21:00 +10°C° 0 mm 1 m/s 734 mmHg 45%
    22:00 +10°C° 0 mm 1 m/s 734 mmHg 45%
    23:00 +9°C° 0 mm 1 m/s 734 mmHg 46%
    Voir plus